User: anonymous   Login
Location: Unspecified
(0.0000°N, 0.0000°E)
Time: 00:50:40
(UTC+00:00)
Language:

TBA - TO BE ASSIGNED - Orbit

View from above orbital plane
View from above orbital plane
View from above satellite
View from above satellite

Ground track
Ground track

The orbit is defined by the following mean orbital elements,

1 67794U          26145.57118909 +.00000000 +00000-0 +33485-3 0 00000
2 67794  51.8841 213.7515 0018068 316.9310  43.0257 15.23878109    07
Epoch (UTC): 25 May 2026 13:42:30
Eccentricity: 0.0018068
inclination: 51.8841°
perigee height: 482 km
apogee height: 507 km
right ascension of ascending node: 213.7515°
argument of perigee: 316.9310°
revolutions per day: 15.23878109
mean anomaly at epoch: 43.0257°

The dashed part of the orbit path shows where the satellite is in the earth's shadow,  

DLR